Rochester, NH

4:59 AM EDT on August 21, 2017 (GMT -0400)
Skyhaven

Weather History for KDAW - December, 2011

Change the Weather History Date:

Thursday, December 22, 2011

  Actual Average (KPSM) Record (KPSM)
Temperature  
Mean Temperature 44 °F -  
Max Temperature 51 °F 36 °F 63 °F (1990)
Min Temperature 37 °F 21 °F -10 °F (1980)
Degree Days  
Heating Degree Days 21    
Moisture  
Dew Point 37 °F    
Average Humidity 80    
Maximum Humidity 100    
Minimum Humidity 50    
Precipitation  
Precipitation 0.01 in - - ()
Sea Level Pressure  
Sea Level Pressure 29.82 in    
Wind  
Wind Speed 3 mph (WNW)    
Max Wind Speed 17 mph    
Max Gust Speed 25 mph    
Visibility 8 miles    
Events Rain    
Averages and records for this station are not official NWS values.
T = Trace of Precipitation, MM = Missing Value Source: NWS Daily Summary

Daily Weather History Graph

Daily Weather History Graph

Search for Another Location

Airport or City:

Trip Planner

Search our weather history database for the weather conditions in past years. The results will help you decide how hot, cold, wet, or windy it might be!

Date:

Astronomy

Dec. 22, 2011 Rise Set
Actual Time 7:13 AM EST 4:11 PM EST
Civil Twilight 6:40 AM EST 4:44 PM EST
Nautical Twilight 6:04 AM EST 5:20 PM EST
Astronomical Twilight 5:29 AM EST 5:54 PM EST
Moon 4:52 AM EST (12/22) 2:18 PM EST (12/22)
Length of Visible Light 10h 03m
Length of Day
8h 58m
Waning Crescent, 6% of the Moon is Illuminated
Dec 22
Waning Crescent
Dec 24
New
Jan 1
First Quarter
Jan 9
Full
Jan 16
Last Quarter

Hourly Weather History & Observations

Time (EST) Temp. Windchill Dew Point Humidity Pressure Visibility Wind Dir Wind Speed Gust Speed Precip Events Conditions
12:03 AM 37.4 °F - 37.4 °F 100% 29.59 in 3.0 mi Calm Calm - N/A   Overcast
12:17 AM 37.4 °F - 37.4 °F 100% 29.58 in 2.5 mi Calm Calm - N/A   Overcast
12:26 AM 37.4 °F - 35.6 °F 93% 29.57 in 3.0 mi Calm Calm - 0.00 in Rain Light Rain
12:37 AM 37.4 °F - 35.6 °F 93% 29.58 in 2.5 mi Calm Calm - 0.00 in   Overcast
12:51 AM 37.0 °F 34.5 °F 36.0 °F 96% 29.58 in 2.5 mi WNW 3.5 mph - 0.00 in   Overcast
12:57 AM 37.4 °F - 35.6 °F 93% 29.58 in 3.0 mi Calm Calm - N/A   Overcast
1:07 AM 37.4 °F - 37.4 °F 100% 29.58 in 2.5 mi Calm Calm - 0.00 in Rain Light Rain
1:22 AM 37.4 °F - 37.4 °F 100% 29.58 in 3.0 mi Calm Calm - 0.00 in Rain Light Rain
1:33 AM 37.4 °F - 37.4 °F 100% 29.58 in 2.5 mi Calm Calm - 0.01 in Rain Light Rain
1:40 AM 37.4 °F 34.9 °F 37.4 °F 100% 29.58 in 2.5 mi NW 3.5 mph - 0.01 in Rain Light Rain
1:51 AM 39.9 °F 37.8 °F 39.0 °F 97% 29.58 in 4.0 mi West 3.5 mph - 0.01 in Rain Light Rain
3:51 AM 42.1 °F 38.4 °F 41.0 °F 96% 29.64 in 8.0 mi WNW 5.8 mph - N/A   Clear
4:51 AM 43.0 °F 41.3 °F 41.0 °F 93% 29.68 in 10.0 mi SSE 3.5 mph - N/A   Clear
5:51 AM 45.0 °F 41.8 °F 42.1 °F 90% 29.73 in 10.0 mi Variable 5.8 mph - N/A   Partly Cloudy
6:51 AM 46.0 °F 43.9 °F 42.1 °F 86% 29.79 in 10.0 mi Variable 4.6 mph - N/A   Clear
7:51 AM 48.0 °F - 42.1 °F 80% 29.85 in 10.0 mi WNW 17.3 mph 25.3 mph N/A   Scattered Clouds
8:51 AM 46.9 °F - 37.9 °F 71% 29.91 in 10.0 mi NW 11.5 mph - N/A   Clear
9:51 AM 48.0 °F - 37.0 °F 66% 29.96 in 10.0 mi West 9.2 mph - N/A   Mostly Cloudy
10:07 AM 48.2 °F - 37.4 °F 66% 29.94 in 10.0 mi WNW 10.4 mph 21.9 mph N/A   Scattered Clouds
10:51 AM 48.0 °F - 37.9 °F 68% 29.95 in 10.0 mi WNW 9.2 mph 17.3 mph N/A   Clear
11:37 AM 48.2 °F - 37.4 °F 66% 29.94 in 10.0 mi West 8.1 mph - N/A   Mostly Cloudy
11:51 AM 48.9 °F - 37.9 °F 66% 29.93 in 10.0 mi WNW 9.2 mph - N/A   Scattered Clouds
12:51 PM 51.1 °F - 36.0 °F 56% 29.94 in 10.0 mi West 8.1 mph - N/A   Clear
1:51 PM 51.1 °F - 34.0 °F 52% 29.96 in 10.0 mi West 9.2 mph - N/A   Clear
2:51 PM 50.0 °F - 32.0 °F 50% 29.96 in 10.0 mi Variable 5.8 mph - N/A   Partly Cloudy
3:51 PM 48.9 °F - 33.1 °F 54% 30.01 in 10.0 mi Variable 3.5 mph - N/A   Mostly Cloudy
4:51 PM 46.9 °F - 34.0 °F 61% 30.03 in 10.0 mi Calm Calm - N/A   Overcast
5:51 PM 46.0 °F - 34.0 °F 63% 30.05 in 10.0 mi Calm Calm - N/A   Mostly Cloudy
6:51 PM 45.0 °F - 34.0 °F 65% 30.05 in 10.0 mi Calm Calm - N/A   Partly Cloudy
7:51 PM 42.1 °F - 34.0 °F 73% 30.05 in 10.0 mi Calm Calm - N/A   Clear
8:51 PM 39.9 °F - 34.0 °F 79% 30.01 in 10.0 mi Calm Calm - N/A   Clear
9:51 PM 41.0 °F 39.0 °F 34.0 °F 76% 30.04 in 10.0 mi SW 3.5 mph - N/A   Partly Cloudy
10:51 PM 37.9 °F - 33.1 °F 83% 30.01 in 10.0 mi Calm Calm - N/A   Overcast
11:51 PM 39.0 °F - 34.0 °F 82% 30.05 in 10.0 mi Calm Calm - N/A   Overcast